Location: ????
(30.2663°N, 31.2484°E)
Time: 13:46:01
(UTC+00:00)

PSLV R/B - Pass Details

Date: 27 September 2022
Orbit: 589 x 625 km, 98.0° (Epoch: 27 November)

Event Time Altitude Azimuth Distance (km) Brightness Sun altitude
Rises 02:56:00 0° 4° (N) 2,903 7.1 -11.6°
Reaches altitude 10° 02:58:15 10° 358° (N) 1,989 6.2 -11.1°
Maximum altitude 03:02:23 46° 286° (WNW) 830 3.8 -10.2°
Drops below altitude 10° 03:06:28 10° 213° (SSW) 1,958 5.8 -9.4°
Sets 03:08:41 0° 207° (SSW) 2,852 6.7 -8.9°
